Regional Weather Roundup
Issued by NWS Wilmington, NC

Home | Current Version | Previous Version | Text Only | Print | Product List | Glossary On
Versions: 1 2 3 4 5 6 7 8 9 10 11 12 13 14 15 16 17 18 19 20 21 22 23 24 25 26 27
000
ASUS42 KILM 230313
RWRILM
RWRILM
REGIONAL HOURLY WEATHER ROUNDUP
NATIONAL WEATHER SERVICE WILMINGTON NC
1100 PM EDT SAT JUL 22 2017

NOTE: "FAIR" INDICATES FEW OR NO CLOUDS BELOW 12,000 FEET WITH NO
SIGNIFICANT WEATHER AND/OR OBSTRUCTIONS TO VISIBILITY.

...............WFO WILMINGTON COUNTY WARNING AREA...............

......COASTAL NC AND SC COUNTIES......

CITY           SKY/WX    TMP DP  RH WIND       PRES   REMARKS
WILMINGTON     CLEAR     81  76  84 S10       29.94F
N MYRTLE BEACH CLEAR     81  77  88 SW8       29.95S
MYRTLE BEACH   CLEAR     81  74  79 SW8       29.97R

......INLAND NC AND SC COUNTIES.......

CITY           SKY/WX    TMP DP  RH WIND       PRES   REMARKS
LUMBERTON      CLEAR     82  74  76 SW6       29.92S
ELIZABETHTOWN  NOT AVBL
WHITEVILLE     CLEAR     80  76  85 S7        29.94S
FLORENCE       CLEAR     82  76  81 S10       29.94S
DARLINGTON     CLEAR     82  75  79 S9        29.93F
KINGSTREE      FAIR      79  73  83 CALM      29.96S
HARTSVILLE     FAIR      81  72  74 SW6       29.93F
BENNETTSVILLE  FAIR      84  73  70 S6        29.92S HX  91
CONWAY         FAIR      77  73  88 S5        29.96S
GEORGETOWN     FAIR      77  77 100 SW5       29.98S
MARION         FAIR      81  73  78 S6        29.95S

....................REST OF NORTH CAROLINA......................

.........EASTERN NC.........

CITY           SKY/WX    TMP DP  RH WIND       PRES   REMARKS
CAPE HATTERAS  CLEAR     78  75  90 SW13      29.93
JACKSONVILLE   CLEAR     79  74  84 S9        29.94R
MOREHEAD CITY  CLEAR     82  79  90 SW15      29.94F HX  92
KENANSVILLE    CLEAR     81  73  78 CALM      29.93S
NEW BERN       CLEAR     80  76  87 SW10      29.93S
ELIZABETH CITY MOCLDY    84  77  79 S15       29.86F HX  94

.........CENTRAL NC.........

CITY           SKY/WX    TMP DP  RH WIND       PRES   REMARKS
RALEIGH DURHAM PTCLDY    86  72  62 SW14      29.89S HX  92
ROCKY MOUNT    CLEAR     85  74  69 S13G21    29.87F HX  92
ROANOKE RAPIDS NOT AVBL
FAYETTEVILLE   CLEAR     89  74  60 S8        29.91S HX  98
HOFFMAN        NOT AVBL

.........WESTERN NC.........

CITY           SKY/WX    TMP DP  RH WIND       PRES   REMARKS
CHARLOTTE      PTCLDY    86  71  60 SW10      29.94R HX  91
GREENSBORO     MOCLDY    81  75  82 W8        29.92R
HICKORY        NOT AVBL
BOONE          NOT AVBL
ASHEVILLE      NOT AVBL

.....................REST OF SOUTH CAROLINA.....................

.........EASTERN SC.........

CITY           SKY/WX    TMP DP  RH WIND       PRES   REMARKS
CHARLESTON     CLEAR     81  75  82 S9        29.97F
BEAUFORT MCAS  CLEAR     83  77  82 S5        29.98S HX  92
HILTON HEAD    CLEAR     82  79  89 VRB7      29.99S HX  93

.........CENTRAL SC.........

CITY           SKY/WX    TMP DP  RH WIND       PRES   REMARKS
COLUMBIA       CLEAR     84  74  71 SW6       29.94S HX  91
ORANGEBURG     CLEAR     80  74  81 S7        29.97R
SUMTER SHAW    NOT AVBL

.........WESTERN SC.........

CITY           SKY/WX    TMP DP  RH WIND       PRES   REMARKS
GREENVILLE     NOT AVBL
ROCK HILL      CLEAR     84  72  67 SW8       29.94S
ANDERSON       PTCLDY    84  74  71 W5        29.97R HX  91
CLEMSON        NOT AVBL
GREENWOOD      CLEAR     83  71  67 SW8       29.97R


...................COASTAL AND OFFSHORE REPORTS..................

................LOCAL PIERS AND NC RESERVE................


STATION/POSITION TIME  SKY/WX   TEMP    WIND        PRES    VSBY
                                AIR SEA DIR/SP/G
                 (UTC)          (F)     (DEG/KT/KT) (MB)    (MI)
JOHNY MRCER PIER 0248            82 79  220/ 15/ 18 1013.2F
NC RESRV MASNBRO NOT AVBL
OCEAN CREST PIER NOT AVBL
SPRINGMAID  PIER 0248                               1013.7R


................COASTAL AND OFFSHORE BUOYS................


STATION/POSITION TIME  SKY/WX   TEMP    WIND        PRES    VSBY
                                AIR SEA DIR/SP/G
                 (UTC)          (F)     (DEG/KT/KT) (MB)    (MI)
DIMNDSHOAL 41025 0250            84 81  230/ 21/ 25 1013.3S
WVE H/P(F/S)=  5/ 6 SWL H/P/D(F/S/D)=  2/130/10

CAPE LOOKOUT     0300            81     220/ 11/ 18 1013.9F
ONSLOW BAY 41036 NOT AVBL
ONSLOW BAY 41064 0208            81 81  230/ 16/ 21 1014.6R
ONSLOW BAY 41159 0243               81                N/A
WVE H/P(F/S)=  5/ 5

MASNBO INL 41110 0259               79                N/A
WVE H/P(F/S)=  3/10

WILM HARBR 41108 0300               81                N/A
WVE H/P(F/S)=  5/ 5

27SE WRITB 41037 0208            82 82  210/ 16/ 23 1014.3R
FRYING PAN 41013 0250            83 84  220/ 17/ 21 1014.6S
WVE H/P(F/S)=  4/ 4 SWL H/P/D(F/S/D)=  2/140/ 9

SUNST NRSH 41024 0208            81 78  240/ 14/ 19 1014.1R
CAPRS NRSH 41029 0208            81 82  230/ 17/ 23 1014.6R
EDISTO     41004 0250            83 84  220/ 14/ 17 1015.1R
WVE H/P(F/S)=  4/ 4 SWL H/P/D(F/S/D)=  2/130/ 9



..........OFFSHORE BUOYS BEYOND 100 NM OFFSHORE...........
.....IN A TRIANGLE---HAT TO BERMUDA TO BAHAMAS TO HAT.....


STATION/POSITION TIME  SKY/WX   TEMP    WIND        PRES    VSBY
                                AIR SEA DIR/SP/G
                 (UTC)          (F)     (DEG/KT/KT) (MB)    (MI)
150E HAT   41001 0250            83 82  230/ 17/ 21 1015.5S
WVE H/P(F/S)=  6/ 6 SWL H/P/D(F/S/D)=  2/140/ 9

W BERMUDA  41048 0250            83 83  240/ 16/ 17 1019.0S
WVE H/P(F/S)=  4/ 8 SWL H/P/D(F/S/D)=  3/120/ 8

ATLANTIC S 41049 0150            82 85   60/  4/  4 1023.2
WVE H/P(F/S)=  4/ 8 SWL H/P/D(F/S/D)=  3/100/ 8

E BAHAMAS  41046 0250            83 84   80/ 14/ 16 1019.9F
WVE H/P(F/S)=  5/10 SWL H/P/D(F/S/D)=  3/130/10

NE BAHAMAS 41047 0250            83 85  150/  6/  8 1021.0R
WVE H/P(F/S)=  4/ 9 SWL H/P/D(F/S/D)=  3/130/ 9

120E CANVRL41010 0250            82 85  190/ 10/ 12 1017.8R
WVE H/P(F/S)=  3/ 9 SWL H/P/D(F/S/D)=  2/ 90/ 9


END




USA.gov is the U.S. government's official web portal to all federal, state and local government web resources and services.